RYR73T EDDB-LICR

Flight info

Callsign RYR73T
Flight time N/A
Altitude 34000
Route LUROS4B/06L LUROS Y211 BEBKU DCT MAREM/N0461F350 DCT APRAQ DCT BUDEX DCT ADLET DCT ROPUS DCT SUXUB DCT SOR/N0396F190 Q58 FOSQA FOSQA1Q
Aircraft B738/M-SDE2E3FGHIRWXY/LB1

Departure

Time N/A
Airport Berlin Brandenburg Airport (EDDB)

Arrival

Time 2026-05-06 16:02
Airport Reggio Calabria Airport (LICR)
Time Latitude Longitude Altitude Speed Heading
2026-05-06 14:14 49.00220 14.31960 33730 ft 416 kts 176°
2026-05-06 14:14 48.94553 14.33183 33736 ft 412 kts 183°
2026-05-06 14:15 48.88808 14.32974 33742 ft 415 kts 188°
2026-05-06 14:15 48.83070 14.32445 33743 ft 410 kts 189°
2026-05-06 14:16 48.77363 14.31897 33743 ft 411 kts 189°
2026-05-06 14:16 48.71672 14.31468 33735 ft 413 kts 187°
2026-05-06 14:17 48.65937 14.31235 33738 ft 413 kts 187°
2026-05-06 14:17 48.60191 14.31014 33738 ft 412 kts 187°
2026-05-06 14:18 48.54464 14.30793 33735 ft 412 kts 187°
2026-05-06 14:18 48.48735 14.30570 33736 ft 411 kts 187°
2026-05-06 14:19 48.43013 14.30351 33725 ft 412 kts 187°
2026-05-06 14:19 48.37290 14.30130 33725 ft 412 kts 187°
2026-05-06 14:20 48.31576 14.29911 33720 ft 411 kts 187°
2026-05-06 14:20 48.25861 14.29695 33712 ft 409 kts 187°
2026-05-06 14:21 48.20156 14.29476 33707 ft 411 kts 187°
2026-05-06 14:21 48.14518 14.29264 33713 ft 403 kts 187°
2026-05-06 14:22 48.08872 14.29040 33711 ft 411 kts 187°
2026-05-06 14:22 48.03188 14.28824 33711 ft 409 kts 187°
2026-05-06 14:23 47.97489 14.28612 33710 ft 412 kts 187°
2026-05-06 14:23 47.91804 14.28402 33711 ft 411 kts 187°
2026-05-06 14:24 47.86264 14.28194 33720 ft 413 kts 187°
2026-05-06 14:24 47.80552 14.27979 33742 ft 413 kts 187°
2026-05-06 14:25 47.74989 14.27768 33755 ft 415 kts 187°
2026-05-06 14:25 47.69223 14.27554 33759 ft 415 kts 187°
2026-05-06 14:26 47.63446 14.27340 33777 ft 415 kts 187°
2026-05-06 14:26 47.57677 14.27125 33791 ft 417 kts 187°
2026-05-06 14:27 47.51969 14.26914 33781 ft 414 kts 187°
2026-05-06 14:27 47.46180 14.26696 33812 ft 418 kts 187°
2026-05-06 14:28 47.40333 14.26477 33826 ft 419 kts 187°
2026-05-06 14:28 47.34539 14.26264 33846 ft 419 kts 187°
2026-05-06 14:29 47.28709 14.26047 33846 ft 422 kts 186°
2026-05-06 14:29 47.22848 14.25833 33845 ft 420 kts 187°
2026-05-06 14:30 47.16996 14.25619 33851 ft 421 kts 187°
2026-05-06 14:30 47.11160 14.25406 33861 ft 421 kts 186°
2026-05-06 14:31 47.05307 14.25191 33873 ft 423 kts 186°
2026-05-06 14:31 46.99438 14.24978 33870 ft 422 kts 186°
2026-05-06 14:32 46.93566 14.24765 33874 ft 423 kts 186°
2026-05-06 14:32 46.87759 14.24555 33879 ft 423 kts 186°
2026-05-06 14:33 46.81867 14.24340 33879 ft 423 kts 186°
2026-05-06 14:33 46.76019 14.24130 33886 ft 423 kts 186°
2026-05-06 14:34 46.70123 14.23917 33883 ft 423 kts 186°
2026-05-06 14:34 46.64245 14.23705 33888 ft 423 kts 186°
2026-05-06 14:35 46.58405 14.23495 33893 ft 422 kts 186°
2026-05-06 14:35 46.52544 14.23286 33889 ft 421 kts 186°
2026-05-06 14:36 46.46673 14.23076 33901 ft 420 kts 186°
2026-05-06 14:36 46.40818 14.22867 33895 ft 421 kts 186°
2026-05-06 14:37 46.34979 14.22660 33899 ft 421 kts 186°
2026-05-06 14:37 46.29118 14.22454 33891 ft 415 kts 186°
2026-05-06 14:38 46.23398 14.22253 33904 ft 417 kts 186°
2026-05-06 14:38 46.17543 14.22038 33900 ft 423 kts 186°
2026-05-06 14:39 46.11681 14.21835 33900 ft 421 kts 186°
2026-05-06 14:39 46.05828 14.21631 33901 ft 421 kts 186°
2026-05-06 14:40 45.99987 14.21426 33904 ft 418 kts 186°
2026-05-06 14:40 45.94176 14.21221 33905 ft 421 kts 186°
2026-05-06 14:41 45.88482 14.21023 33907 ft 420 kts 186°
2026-05-06 14:41 45.82652 14.20819 33904 ft 421 kts 186°
2026-05-06 14:42 45.76801 14.20614 33908 ft 420 kts 186°
2026-05-06 14:42 45.70993 14.20413 33907 ft 421 kts 186°
2026-05-06 14:43 45.65137 14.20210 33914 ft 420 kts 186°
2026-05-06 14:43 45.59272 14.20006 33909 ft 421 kts 186°
2026-05-06 14:44 45.53417 14.19805 33916 ft 421 kts 186°
2026-05-06 14:45 45.44649 14.19504 33914 ft 421 kts 186°
2026-05-06 14:45 45.38770 14.19301 33918 ft 422 kts 186°
2026-05-06 14:46 45.32887 14.19100 33918 ft 421 kts 186°
2026-05-06 14:46 45.27055 14.18902 33919 ft 421 kts 186°
2026-05-06 14:47 45.21178 14.18699 33920 ft 423 kts 187°
2026-05-06 14:47 45.15338 14.18501 33917 ft 421 kts 187°
2026-05-06 14:48 45.09452 14.18299 33916 ft 423 kts 187°
2026-05-06 14:48 45.03573 14.18100 33921 ft 424 kts 187°
2026-05-06 14:49 44.97678 14.17903 33919 ft 422 kts 187°
2026-05-06 14:49 44.91821 14.17705 33919 ft 422 kts 187°
2026-05-06 14:50 44.86207 14.17516 33923 ft 422 kts 187°
2026-05-06 14:50 44.80384 14.17321 33931 ft 421 kts 187°
2026-05-06 14:51 44.74525 14.17123 33930 ft 421 kts 187°
2026-05-06 14:51 44.68707 14.16928 33931 ft 420 kts 187°
2026-05-06 14:52 44.62877 14.16735 33929 ft 418 kts 187°
2026-05-06 14:52 44.57057 14.16540 33927 ft 420 kts 187°
2026-05-06 14:53 44.51255 14.16348 33921 ft 417 kts 187°
2026-05-06 14:53 44.45431 14.16152 33918 ft 419 kts 187°
2026-05-06 14:54 44.39626 14.15958 33917 ft 418 kts 188°
2026-05-06 14:54 44.33806 14.15765 33921 ft 419 kts 187°
2026-05-06 14:55 44.27977 14.15574 33920 ft 417 kts 187°
2026-05-06 14:55 44.22231 14.15387 33924 ft 415 kts 188°
2026-05-06 14:56 44.16428 14.15193 33926 ft 414 kts 188°
2026-05-06 14:56 44.10677 14.15004 33927 ft 414 kts 188°
2026-05-06 14:57 44.04944 14.14817 33926 ft 411 kts 188°
2026-05-06 14:57 43.99194 14.14627 33923 ft 415 kts 188°
2026-05-06 14:58 43.93473 14.14444 33921 ft 412 kts 188°
2026-05-06 14:58 43.87712 14.14257 33922 ft 412 kts 188°
2026-05-06 14:59 43.82005 14.14072 33913 ft 414 kts 188°
2026-05-06 14:59 43.76222 14.13881 33906 ft 416 kts 188°
2026-05-06 15:00 43.70439 14.13693 33905 ft 413 kts 188°
2026-05-06 15:00 43.64693 14.13510 33906 ft 414 kts 188°
2026-05-06 15:01 43.58953 14.13327 33903 ft 413 kts 188°
2026-05-06 15:01 43.53237 14.13141 33904 ft 413 kts 188°
2026-05-06 15:02 43.47476 14.12953 33905 ft 413 kts 188°
2026-05-06 15:02 43.41754 14.12769 33903 ft 411 kts 188°
2026-05-06 15:03 43.36006 14.12581 33911 ft 412 kts 188°
2026-05-06 15:03 43.30322 14.12402 33911 ft 411 kts 188°
2026-05-06 15:04 43.24584 14.12221 33908 ft 410 kts 188°
2026-05-06 15:04 43.18881 14.12039 33911 ft 412 kts 188°
2026-05-06 15:05 43.13149 14.11852 33905 ft 411 kts 188°
2026-05-06 15:05 43.07437 14.11672 33907 ft 414 kts 188°
2026-05-06 15:06 43.01670 14.11493 33905 ft 409 kts 188°
2026-05-06 15:06 42.95972 14.11311 33908 ft 414 kts 188°
2026-05-06 15:07 42.90197 14.11130 33905 ft 412 kts 188°
2026-05-06 15:07 42.84434 14.10948 33912 ft 414 kts 188°
2026-05-06 15:08 42.78684 14.10766 33910 ft 416 kts 188°
2026-05-06 15:08 42.72922 14.10582 33910 ft 418 kts 188°
2026-05-06 15:09 42.67141 14.10404 33910 ft 416 kts 188°
2026-05-06 15:09 42.61332 14.10221 33911 ft 419 kts 188°
2026-05-06 15:10 42.55496 14.10038 33919 ft 422 kts 188°
2026-05-06 15:10 42.49629 14.09857 33914 ft 420 kts 188°
2026-05-06 15:11 42.43839 14.09683 33921 ft 412 kts 188°
2026-05-06 15:11 42.39091 14.09530 33926 ft 421 kts 188°
2026-05-06 15:12 42.33312 14.09354 33928 ft 412 kts 187°
2026-05-06 15:12 42.27494 14.09165 33930 ft 425 kts 187°
2026-05-06 15:13 42.21579 14.08984 33940 ft 422 kts 188°
2026-05-06 15:13 42.15883 14.08810 33968 ft 425 kts 187°
2026-05-06 15:14 42.09973 14.08629 33994 ft 423 kts 187°
2026-05-06 15:14 42.04219 14.08453 34002 ft 425 kts 187°
2026-05-06 15:15 41.98337 14.08271 33996 ft 426 kts 187°
2026-05-06 15:15 41.92405 14.08092 33997 ft 428 kts 187°
2026-05-06 15:16 41.86385 14.08422 34003 ft 434 kts 179°
2026-05-06 15:16 41.83481 14.09557 34007 ft 437 kts 160°
2026-05-06 15:16 41.80960 14.11815 34023 ft 433 kts 151°
2026-05-06 15:16 41.78395 14.13750 34009 ft 418 kts 168°
2026-05-06 15:17 41.75577 14.14388 34019 ft 408 kts 184°
2026-05-06 15:17 41.70083 14.15907 34008 ft 401 kts 166°
2026-05-06 15:17 41.67531 14.16992 34001 ft 379 kts 174°
2026-05-06 15:18 41.65008 14.17677 34001 ft 362 kts 179°
2026-05-06 15:18 41.62588 14.17668 34000 ft 338 kts 200°
2026-05-06 15:18 41.60524 14.16313 34007 ft 328 kts 225°
2026-05-06 15:18 41.59217 14.13855 34007 ft 330 kts 249°
2026-05-06 15:19 41.58936 14.10825 34004 ft 342 kts 274°
2026-05-06 15:19 41.59777 14.07782 34005 ft 359 kts 297°
2026-05-06 15:19 41.61580 14.05457 34004 ft 378 kts 321°
2026-05-06 15:19 41.64117 14.04192 34021 ft 397 kts 341°
2026-05-06 15:20 41.66916 14.03796 34003 ft 417 kts 356°
2026-05-06 15:20 41.69805 14.04683 34014 ft 439 kts 19°
2026-05-06 15:20 41.72362 14.06964 34015 ft 456 kts 42°
2026-05-06 15:20 41.74240 14.10430 34019 ft 465 kts 65°
2026-05-06 15:21 41.75125 14.14609 34014 ft 467 kts 88°
2026-05-06 15:21 41.74897 14.18853 34010 ft 462 kts 109°
2026-05-06 15:21 41.73602 14.22734 34012 ft 453 kts 131°
2026-05-06 15:21 41.71464 14.25650 34019 ft 439 kts 152°
2026-05-06 15:22 41.68723 14.27374 34017 ft 429 kts 170°
2026-05-06 15:22 41.62925 14.29072 34004 ft 430 kts 176°
2026-05-06 15:23 41.57055 14.30577 34006 ft 426 kts 175°
2026-05-06 15:23 41.51238 14.32140 34004 ft 428 kts 175°
2026-05-06 15:24 41.45540 14.33720 34005 ft 418 kts 175°
2026-05-06 15:24 41.39738 14.35343 33997 ft 430 kts 174°
2026-05-06 15:25 41.33905 14.36991 33995 ft 428 kts 174°
2026-05-06 15:25 41.28051 14.38648 33986 ft 431 kts 174°
2026-05-06 15:26 41.22250 14.40285 33987 ft 428 kts 174°
2026-05-06 15:26 41.16401 14.41936 33989 ft 430 kts 174°
2026-05-06 15:27 41.10516 14.43595 33993 ft 432 kts 174°
2026-05-06 15:27 41.04697 14.45233 33999 ft 427 kts 174°
2026-05-06 15:28 40.98863 14.46871 33999 ft 430 kts 174°
2026-05-06 15:28 40.93000 14.48512 34001 ft 429 kts 174°
2026-05-06 15:29 40.87170 14.50144 34000 ft 424 kts 174°
2026-05-06 15:29 40.81433 14.51751 33984 ft 427 kts 174°
2026-05-06 15:30 40.75516 14.53391 33988 ft 439 kts 174°
2026-05-06 15:30 40.69601 14.55042 33980 ft 431 kts 174°
2026-05-06 15:31 40.63708 14.56681 33982 ft 436 kts 174°
2026-05-06 15:31 40.57800 14.58316 33980 ft 436 kts 174°
2026-05-06 15:32 40.48886 14.60783 33976 ft 439 kts 174°
2026-05-06 15:32 40.42906 14.62433 33974 ft 438 kts 174°
2026-05-06 15:33 40.36941 14.64079 33981 ft 441 kts 174°
2026-05-06 15:33 40.30967 14.65728 33981 ft 438 kts 175°
2026-05-06 15:34 40.24974 14.67372 33982 ft 441 kts 175°
2026-05-06 15:34 40.18981 14.69014 33978 ft 440 kts 174°
2026-05-06 15:35 40.13049 14.70642 33981 ft 437 kts 175°
2026-05-06 15:35 40.07037 14.72280 33983 ft 443 kts 174°
2026-05-06 15:36 40.01030 14.73916 33985 ft 441 kts 175°
2026-05-06 15:36 39.95018 14.75549 33987 ft 443 kts 174°
2026-05-06 15:37 39.88963 14.77191 33987 ft 445 kts 174°
2026-05-06 15:37 39.82910 14.78838 33987 ft 444 kts 174°
2026-05-06 15:38 39.76912 14.80466 33988 ft 434 kts 174°
2026-05-06 15:38 39.70967 14.82067 33986 ft 442 kts 174°
2026-05-06 15:39 39.64916 14.83695 33985 ft 447 kts 174°
2026-05-06 15:39 39.58811 14.85340 33987 ft 445 kts 174°
2026-05-06 15:40 39.52754 14.86969 33987 ft 447 kts 173°
2026-05-06 15:40 39.46681 14.88600 33915 ft 449 kts 173°
2026-05-06 15:41 39.43580 14.89431 33431 ft 455 kts 173°
2026-05-06 15:41 39.40496 14.90252 32595 ft 459 kts 173°
2026-05-06 15:41 39.37366 14.91085 31687 ft 461 kts 173°
2026-05-06 15:41 39.34198 14.91931 30737 ft 464 kts 173°
2026-05-06 15:42 39.31047 14.92773 29784 ft 467 kts 173°
2026-05-06 15:42 39.27893 14.93616 28792 ft 470 kts 172°
2026-05-06 15:42 39.24667 14.94475 27727 ft 474 kts 172°
2026-05-06 15:42 39.21467 14.95328 26641 ft 478 kts 173°
2026-05-06 15:43 39.18205 14.96197 25823 ft 474 kts 172°
2026-05-06 15:43 39.15040 14.97042 25453 ft 461 kts 172°
2026-05-06 15:43 39.11917 14.97877 25023 ft 451 kts 173°
2026-05-06 15:43 39.08882 14.98685 24509 ft 442 kts 173°
2026-05-06 15:44 39.05909 14.99474 23982 ft 435 kts 173°
2026-05-06 15:44 39.02979 15.00253 23457 ft 428 kts 173°
2026-05-06 15:44 39.00071 15.01024 22935 ft 421 kts 173°
2026-05-06 15:44 38.97247 15.01771 22434 ft 415 kts 173°
2026-05-06 15:45 38.94420 15.02516 21924 ft 416 kts 173°
2026-05-06 15:45 38.91564 15.03264 21405 ft 420 kts 173°
2026-05-06 15:45 38.88718 15.04011 20891 ft 418 kts 173°
2026-05-06 15:45 38.85866 15.04763 20376 ft 412 kts 172°
2026-05-06 15:46 38.83102 15.05493 19885 ft 405 kts 172°
2026-05-06 15:46 38.80340 15.06222 19386 ft 400 kts 172°
2026-05-06 15:46 38.77625 15.06934 18893 ft 401 kts 172°
2026-05-06 15:46 38.74876 15.07665 18398 ft 403 kts 171°
2026-05-06 15:47 38.72203 15.08644 17916 ft 403 kts 164°
2026-05-06 15:47 38.69655 15.10113 17420 ft 400 kts 154°
2026-05-06 15:47 38.67368 15.12064 16949 ft 398 kts 147°
2026-05-06 15:47 38.65193 15.14280 16462 ft 398 kts 144°
2026-05-06 15:48 38.63088 15.16539 16000 ft 401 kts 143°
2026-05-06 15:48 38.60945 15.18860 15513 ft 401 kts 143°
2026-05-06 15:48 38.58837 15.21141 15027 ft 393 kts 143°
2026-05-06 15:48 38.56763 15.23379 14589 ft 387 kts 143°
2026-05-06 15:49 38.54737 15.25557 14119 ft 383 kts 143°
2026-05-06 15:49 38.52682 15.27725 13677 ft 386 kts 145°
2026-05-06 15:49 38.50532 15.29735 13225 ft 383 kts 150°
2026-05-06 15:49 38.48271 15.31456 12780 ft 374 kts 154°
2026-05-06 15:50 38.45991 15.33034 12321 ft 367 kts 155°
2026-05-06 15:50 38.43757 15.34543 11901 ft 363 kts 155°
2026-05-06 15:50 38.41520 15.36049 11449 ft 366 kts 154°
2026-05-06 15:50 38.39272 15.37569 11016 ft 365 kts 154°
2026-05-06 15:51 38.37044 15.39075 10568 ft 358 kts 155°
2026-05-06 15:51 38.34731 15.40049 10149 ft 345 kts 174°
2026-05-06 15:51 38.32389 15.40112 9939 ft 331 kts 183°
2026-05-06 15:51 38.30151 15.39952 9779 ft 317 kts 185°
2026-05-06 15:52 38.27972 15.39759 9528 ft 308 kts 184°
2026-05-06 15:52 38.25850 15.39592 9052 ft 307 kts 186°
2026-05-06 15:52 38.23837 15.38764 8569 ft 305 kts 213°
2026-05-06 15:52 38.22426 15.36810 8088 ft 306 kts 242°
2026-05-06 15:53 38.21984 15.34187 7592 ft 308 kts 272°
2026-05-06 15:53 38.22642 15.31636 7112 ft 311 kts 302°
2026-05-06 15:53 38.24211 15.29769 6626 ft 312 kts 326°
2026-05-06 15:53 38.26144 15.28503 6199 ft 308 kts 342°
2026-05-06 15:54 38.28198 15.28343 5951 ft 295 kts 11°
2026-05-06 15:54 38.30087 15.29175 5719 ft 282 kts 23°
2026-05-06 15:54 38.31795 15.30354 5469 ft 271 kts 39°
2026-05-06 15:54 38.32944 15.32163 5226 ft 264 kts 64°
2026-05-06 15:55 38.33643 15.34295 4983 ft 262 kts 72°
2026-05-06 15:55 38.33941 15.36575 4745 ft 260 kts 94°
2026-05-06 15:55 38.33572 15.38800 4520 ft 260 kts 109°
2026-05-06 15:55 38.32835 15.40901 4276 ft 257 kts 123°
2026-05-06 15:56 38.31832 15.42775 4034 ft 255 kts 117°
2026-05-06 15:56 38.31177 15.44864 3800 ft 255 kts 110°
2026-05-06 15:56 38.30572 15.46970 3666 ft 253 kts 111°
2026-05-06 15:56 38.29962 15.49062 3606 ft 253 kts 111°
2026-05-06 15:57 38.29346 15.51160 3554 ft 254 kts 111°
2026-05-06 15:57 38.28727 15.53277 3498 ft 254 kts 111°
2026-05-06 15:57 38.27844 15.55195 3436 ft 250 kts 137°
2026-05-06 15:57 38.26367 15.56141 3374 ft 234 kts 171°
2026-05-06 15:58 38.24800 15.56242 3326 ft 219 kts 185°
2026-05-06 15:58 38.23348 15.55922 3253 ft 205 kts 185°
2026-05-06 15:58 38.21968 15.56042 3188 ft 191 kts 166°
2026-05-06 15:58 38.20753 15.56489 3199 ft 173 kts 160°
2026-05-06 15:59 38.19640 15.57070 3187 ft 176 kts 155°
2026-05-06 15:59 38.18510 15.57756 3083 ft 184 kts 154°
2026-05-06 15:59 38.17361 15.58469 2773 ft 180 kts 154°
2026-05-06 15:59 38.16264 15.59114 2528 ft 165 kts 156°
2026-05-06 16:00 38.15299 15.59719 2431 ft 145 kts 152°
2026-05-06 16:00 38.14432 15.60340 2269 ft 141 kts 150°
2026-05-06 16:00 38.13577 15.60981 2047 ft 141 kts 150°
2026-05-06 16:00 38.12729 15.61576 1770 ft 140 kts 153°
2026-05-06 16:01 38.11859 15.62119 1474 ft 138 kts 156°
2026-05-06 16:01 38.10974 15.62640 1112 ft 137 kts 153°
2026-05-06 16:01 38.10151 15.63200 830 ft 133 kts 154°
2026-05-06 16:01 38.09315 15.63740 486 ft 136 kts 155°
2026-05-06 16:02 38.08490 15.64276 261 ft 128 kts 156°
2026-05-06 16:02 38.07708 15.64780 120 ft 121 kts 156°
2026-05-06 16:02 38.07180 15.65111 119 ft 41 kts 153°
2026-05-06 16:02 38.06964 15.65255 119 ft 34 kts 153°
2026-05-06 16:03 38.06758 15.65391 119 ft 31 kts 153°
2026-05-06 16:03 38.06582 15.65502 119 ft 15 kts 156°
2026-05-06 16:03 38.06526 15.65546 119 ft 8 kts 119°
2026-05-06 16:03 38.06500 15.65612 119 ft 8 kts 117°
2026-05-06 16:04 38.06463 15.65651 119 ft 7 kts 184°
2026-05-06 16:04 38.06449 15.65595 119 ft 8 kts 321°
2026-05-06 16:04 38.06517 15.65550 119 ft 17 kts 333°
2026-05-06 16:04 38.06642 15.65470 119 ft 21 kts 334°
2026-05-06 16:05 38.06797 15.65368 119 ft 30 kts 333°
2026-05-06 16:05 38.06982 15.65247 119 ft 30 kts 332°
2026-05-06 16:05 38.07198 15.65105 119 ft 30 kts 331°
2026-05-06 16:05 38.07297 15.65118 119 ft 13 kts 64°
2026-05-06 16:06 38.07338 15.65221 119 ft 10 kts 55°
2026-05-06 16:06 38.07392 15.65218 119 ft 6 kts 350°
2026-05-06 16:06 38.07420 15.65250 119 ft 4 kts 73°
2026-05-06 16:06 38.07418 15.65260 119 ft 1 kts 139°
2026-05-06 16:07 38.07415 15.65264 119 ft 0 kts 127°